Location: Bellière
(49.6013°N, 1.6032°E)
Time: 22:48:07
(UTC+00:00)

Daily predictions for brighter satellites

Satellite Brightness Start Highest point End
(mag) Time Altitude Azimuth Time Altitude Azimuth Time Altitude Azimuth
Cosmos 1607 4.0 17:31:20 10° SSW 17:37:20 61° ESE 17:43:25 10° NE
ATLAS 5 CENTAUR R/B 2.8 17:33:16 10° NW 17:37:26 51° SW 17:42:33 10° SSE
Cosmos 1125 Rocket 3.8 17:32:45 10° NNW 17:37:45 45° ENE 17:42:43 10° SE
Cosmos 2061 Rocket 4.2 17:31:50 10° N 17:38:05 52° ENE 17:44:12 10° SSE
ARIANE 6 FM1 Upper Stage 4.4 17:38:52 10° NNW 17:41:28 16° NNE 17:44:03 10° NE
CZ-4 R/B 4.4 17:38:01 10° SSE 17:41:54 59° ENE 17:45:50 10° N
Cosmos 1455 Rocket 4.2 17:39:02 10° NNE 17:42:25 22° ENE 17:45:47 10° ESE
SL-16 R/B 3.4 17:36:27 10° N 17:42:27 53° WNW 17:48:26 10° SW
CZ-4C R/B 1.9 17:39:10 10° SSW 17:43:15 54° ESE 17:48:26 10° NE
NOSS 3-3 (C) 4.1 17:38:58 10° S 17:43:50 43° ESE 17:49:35 10° NE
BREEZE-M DEB (TANK) 3.2 17:40:01 10° WNW 17:44:21 82° SSW 17:50:37 10° ESE
USA 306 2.3 17:41:48 10° WNW 17:44:51 52° SW 17:46:55 10° SE
MOS 1 Rocket 4.4 17:42:00 10° S 17:46:19 46° W 17:50:30 10° NNW
YAOGAN 1 2.8 17:42:49 10° SE 17:46:53 47° ENE 17:50:59 10° N
Cosmos 158 Rocket 3.8 17:42:15 10° SSW 17:47:04 72° ESE 17:51:56 10° NNE
SeaSat 1 2.5 17:44:10 10° SSE 17:49:03 85° WSW 17:54:00 10° NNW
SAR-Lupe-4 3.5 17:48:17 10° SSE 17:51:49 69° ENE 17:55:23 10° N
NOAA 6 4.4 17:50:04 10° SE 17:54:53 42° ENE 17:59:43 10° N
Spot 4 Rocket 4.2 17:50:30 10° SE 17:55:25 50° ENE 18:00:21 10° N
Cosmos 2228 4.4 17:53:07 10° NNE 17:55:57 18° ENE 17:58:48 10° ESE
COSMO-SKYMED 1 3.1 17:52:28 10° NNE 17:56:14 33° E 17:59:59 10° SSE
Okean 1 Rocket 3.1 17:52:35 10° N 17:56:56 55° ENE 18:01:13 10° SSE
PSLV R/B 3.9 17:53:42 10° SE 17:57:31 38° ENE 18:01:20 10° N
CZ-2D R/B 3.8 17:55:54 10° S 17:58:52 47° W 18:01:51 10° NNW
Okean 2 Rocket 3.0 17:54:54 10° N 17:59:18 67° ENE 18:03:38 10° SSE
USA 234 4.0 17:52:58 10° SE 17:59:23 56° SW 18:05:49 10° WNW
Cosmos 2221 Rocket 3.9 17:55:33 10° SSE 17:59:46 44° E 18:04:04 10° NNE
Meteor 1-11 4.2 17:55:04 10° S 18:00:40 78° E 18:06:25 10° NNE
ARIANE 5 R/B 3.3 17:55:59 10° S 18:01:00 57° WSW 18:06:01 10° NNW
SPOT 5 4.4 18:00:21 10° E 18:03:22 17° NE 18:06:37 10° NNE
BREEZE-M (TANK) 2.5 18:03:46 10° W 18:06:05 65° SSW 18:11:21 10° ESE
Cosmos 1378 Rocket 3.8 18:02:48 10° SSW 18:07:05 71° W 18:11:24 10° N
Radarsat Rocket 4.0 18:02:45 10° SSE 18:08:34 68° ENE 18:14:52 10° NNW
CZ-2D R/B 3.2 18:06:48 10° SSE 18:10:41 69° ENE 18:14:40 10° N
NOSS 3-3 (A) 3.7 18:06:08 10° SSW 18:11:17 75° SE 18:17:31 10° NE
Sich 1 Rocket 3.6 18:07:56 10° N 18:12:30 75° E 18:17:03 10° SSE
Meteor 2-1 Rocket 4.3 18:11:08 10° NNW 18:16:58 89° W 18:22:53 10° S
Cosmos 2297 Rocket 2.4 18:11:51 10° S 18:17:15 48° ESE 18:22:42 10° NE
Tiangong 0.4 18:16:49 10° S 18:17:32 11° SSE 18:18:16 10° SE
GP-B 4.1 18:14:51 10° SSW 18:19:05 50° W 18:23:21 10° N
SKYMED 2 3.6 18:14:56 10° NNE 18:19:19 85° WNW 18:23:39 10° SSW
Cosmos 1025 Rocket 3.0 18:15:31 10° S 18:19:49 88° E 18:24:12 10° N
Cosmos 1356 Rocket 4.2 18:17:42 10° NNW 18:21:31 51° W 18:25:22 10° S
Cosmos 2150 Rocket 4.4 18:17:28 10° NNW 18:22:20 40° ENE 18:27:09 10° SE
Resurs 01 Rocket 1.7 18:18:44 10° SSE 18:23:00 52° ENE 18:27:17 10° N
Cosmos 2298 Rocket 4.5 18:19:42 10° NNW 18:24:42 40° ENE 18:29:31 11° SE
Cosmos 2346 Rocket 4.4 18:18:37 10° S 18:24:52 76° E 18:31:08 10° NNE
Resurs 1-3 3.9 18:21:36 10° S 18:25:53 69° W 18:30:11 10° NNW
Cosmos 2344 4.4 18:23:28 10° SSE 18:29:39 25° ESE 18:32:55 19° ENE
NOSS 3-4 (A) 3.8 18:23:06 10° NW 18:29:40 70° NE 18:37:27 10° SE
USA 290 4.2 18:26:55 10° WSW 18:29:45 28° WNW 18:32:35 10° N
NOSS 3-4 (C) 3.8 18:23:22 10° NW 18:29:57 69° NE 18:37:44 10° SE
Cosmos 1782 3.6 18:28:51 10° NNE 18:31:36 24° ENE 18:31:36 24° ENE
CRYOSAT 2 4.4 18:30:52 10° NNE 18:35:41 55° E 18:40:29 10° S
Helios 1A Rocket 4.3 18:39:28 16° SE 18:39:28 16° SE 18:40:20 10° SSE
Lacrosse 5 rocket 2.3 18:40:03 10° W 18:43:13 31° NNW 18:44:57 20° NNE
Cosmos 1447 Rocket 4.5 18:37:18 10° S 18:43:26 88° W 18:49:37 10° N
CZ-4B R/B 4.5 18:43:54 32° E 18:44:23 33° ENE 18:47:54 10° N
Cosmos 1980 3.9 18:39:32 10° NNW 18:45:12 75° WSW 18:50:50 10° SSE
COSMOS 2428 4.3 18:40:46 10° NW 18:45:58 37° WSW 18:51:09 10° S
Meteor 1-27 4.2 18:40:17 10° N 18:46:05 81° ENE 18:51:56 10° SSE
ATLAS 2AS CENTAUR R/B 4.1 18:40:29 10° WNW 18:46:13 27° NNW 18:51:31 11° NE
Cosmos 2263 Rocket 3.3 18:43:13 10° SSE 18:46:41 22° ESE 18:46:41 22° ESE
SJ-6B 2.3 18:46:43 10° SSE 18:50:06 66° ENE 18:53:32 10° N
Terra 3.6 18:51:39 16° NE 18:51:39 16° NE 18:53:19 10° NNE
Cosmos 2237 Rocket 2.4 18:44:55 10° NNW 18:50:36 74° WSW 18:56:16 10° SSE
CARTOSAT-1 4.1 18:50:35 10° S 18:54:43 59° W 18:58:54 10° NNW
Cosmos 44 Rocket 3.4 18:55:33 10° SSW 19:00:20 55° ESE 19:02:15 34° ENE
ERS-1 Rocket 4.1 19:04:25 25° NE 19:04:25 25° NE 19:07:37 10° N
USA 267 3.7 18:59:48 21° NE 19:04:13 55° NNW 19:10:35 10° W
Cosmos 1816 Rocket 4.5 18:59:10 10° SSE 19:05:07 56° E 19:11:11 10° NNE
Meteor 1-31 Rocket 3.7 19:06:45 29° NNE 19:06:45 29° NNE 19:08:44 10° N
Cosmos 2034 Rocket 4.0 19:02:24 10° N 19:08:28 56° ENE 19:13:44 14° SSE
Aureole 3 Rocket 4.4 19:04:58 10° NNW 19:08:38 34° W 19:11:38 10° SSW
BREEZE-M DEB (TANK) 4.5 19:04:57 10° W 19:08:51 59° SSW 19:16:43 19° SE
Cosmos 1072 Rocket 4.4 19:03:34 10° N 19:09:52 88° E 19:16:02 10° S
ADEOS 4.3 19:12:54 34° NE 19:12:54 34° NE 19:17:08 10° N
Cosmos 1544 Rocket 3.9 19:10:50 10° N 19:14:22 45° NE 19:14:22 45° NE
SL-16 R/B 2.2 19:10:12 10° NNW 19:15:48 58° NE 19:17:18 44° ESE
Cosmos 2227 Rocket 2.1 19:10:52 10° S 19:16:23 60° ESE 19:18:49 33° NE
Cosmos 1634 Rocket 4.4 19:10:49 10° N 19:16:43 39° ENE 19:17:04 39° ENE
Cosmos 1570 Rocket 4.2 19:13:54 10° SSW 19:19:10 72° WNW 19:24:27 10° NNE
Cosmos 1455 Rocket 4.2 19:16:14 10° NNW 19:20:18 42° W 19:24:21 10° SSW
ARIANE 6 FM1 Upper Stage 3.3 19:17:33 10° NW 19:20:45 41° N 19:20:45 41° N
Cosmos 1975 Rocket 3.0 19:17:51 10° S 19:22:12 84° W 19:26:33 10° N
CZ-4 R/B 3.0 19:33:01 23° N 19:33:01 23° N 19:34:31 10° N
CZ-4C R/B 3.3 19:27:27 10° W 19:31:44 35° NNW 19:35:03 19° NNE
DNEPR-1 R/B 4.1 19:27:17 10° NW 19:32:08 72° SW 19:34:11 39° SSE
Cosmos 2228 3.6 19:29:11 10° NNW 19:33:16 53° W 19:37:09 11° S
Cosmos 1464 Rocket 4.3 19:30:36 10° NNW 19:36:54 67° W 19:43:08 10° S
Cosmos 2208 Rocket 4.3 19:33:48 10° SSW 19:39:01 68° WNW 19:43:22 16° NNE
CZ-4B R/B 3.5 19:40:18 48° NE 19:40:18 48° NE 19:44:35 10° N
SPOT 5 2.9 19:39:23 52° S 19:40:35 84° WSW 19:45:42 10° NNW
DMSP 5D-2 F-14 4.5 19:43:35 72° ENE 19:43:39 72° ENE 19:49:03 10° NNW
MOS 1 4.3 19:43:59 62° ENE 19:43:59 62° ENE 19:49:24 10° N
CZ-4B DEB 4.0 19:43:20 64° SE 19:44:12 82° ENE 19:49:41 10° NNW
CSL-04 Debris 4.2 19:49:11 40° S 19:51:13 75° WSW 19:56:40 10° NNW
CSL-04 Rocket 3.9 19:53:07 34° S 19:55:20 64° WSW 20:00:36 10° NNW
Resurs 01 Rocket 4.2 19:56:28 10° SW 19:59:40 20° W 20:02:53 10° NW
Cosmos 2297 Rocket 3.6 19:56:17 10° WSW 20:01:27 36° NW 20:06:06 13° NNE
Cosmos 1943 3.9 19:59:17 10° NNW 20:03:26 43° N 20:03:26 43° N
Lacrosse 5 rocket 4.0 20:17:45 10° NW 20:18:23 13° NW 20:18:23 13° NW
Tsikada Rocket 4.4 20:19:39 10° SSW 20:27:17 52° NNW 20:32:00 10° N
Terra 3.8 20:30:15 22° NNW 20:30:15 22° NNW 20:31:56 10° NNW
Cosmos 2263 Rocket 3.4 20:25:19 10° SW 20:28:28 34° SW 20:28:28 34° SW
Okean O Rocket 4.5 20:39:13 10° NNW 20:39:13 10° NNW 20:39:16 10° NNW
ATLAS 2AS CENTAUR R/B 4.0 20:33:31 10° NW 20:38:56 27° N 20:38:56 27° N
Cosmos 2344 3.4 20:35:32 10° SW 20:43:00 76° WNW 20:43:00 76° WNW
USA 267 3.9 20:47:08 47° N 20:47:08 47° N 20:52:53 10° WNW
BREEZE-M DEB (TANK) 4.5 20:53:41 10° WSW 21:19:26 17° ENE 21:27:47 10° ENE
SL-16 R/B 3.9 20:54:51 10° NW 20:59:12 27° W 20:59:12 27° W
Cosmos 2227 Rocket 3.8 20:55:51 10° WSW 21:00:43 30° NW 21:00:43 30° NW
CZ-4C R/B 4.4 21:17:29 10° NW 21:20:00 20° NNW 21:20:00 20° NNW
